| ID | Machine | Gebeurtenis | Tijd | Uren | Service | Status | USB ID | |
|---|---|---|---|---|---|---|---|---|
| 370019 | 30-010 A | Engine Stopped | 19-01-2026 11:20:39 | 5105 | - | Niet ingesteld | 6D25E01206 | |
| 370015 | 30-010 A | Battery Voltage | 19-01-2026 11:20:19 | 5105 | - | Niet ingesteld | 6D25E01206 | |
| 370017 | 30-010 A | Engine Stopped | 19-01-2026 11:19:39 | 5105 | - | Niet ingesteld | 6D25E01206 | |
| 326141 | 30-010 A | Generator Over Current Warning | 14-11-2025 09:32:44 | 4767 | - | Niet ingesteld | 6D25E01206 | |
| 326140 | 30-010 A | Engine Start | 14-11-2025 09:27:25 | 4767 | - | Niet ingesteld | 6D25E01206 | |
| 326131 | 30-010 A | Engine Stopped | 14-11-2025 09:15:40 | 4767 | - | Niet ingesteld | 6D25E01206 | |
| 326132 | 30-010 A | kW Overload Alarm Electrical Trip | 14-11-2025 09:15:33 | 4767 | - | Niet ingesteld | 6D25E01206 | |
| 326124 | 30-010 A | Battery Voltage | 14-11-2025 08:37:43 | 4766 | - | Niet ingesteld | 6D25E01206 | |
| 326123 | 30-010 A | Engine Stopped | 14-11-2025 08:37:39 | 4766 | - | Niet ingesteld | 6D25E01206 | |
| 325481 | 30-010 A | Engine Stopped | 11-11-2025 06:55:17 | 4766 | - | Niet ingesteld | 6D25E01206 | |
| 325482 | 30-010 A | Battery Voltage | 11-11-2025 06:54:46 | 4766 | - | Niet ingesteld | 6D25E01206 | |
| 313117 | 30-010 A | Engine Stopped | 30-09-2025 20:18:38 | 4766 | - | Niet ingesteld | 6D25E01206 | |
| 309449 | 30-010 A | Low Fuel Level Warning | 07-09-2025 13:16:27 | 4207 | - | Niet ingesteld | 6D25E01206 | |
| 278282 | 30-010 A | Emergency Stop Shutdown | 30-12-2024 15:08:08 | 3686 | - | Niet ingesteld | 6D25E01206 | |
| 278281 | 30-010 A | Engine Stopped | 30-12-2024 15:07:34 | 3686 | - | Niet ingesteld | 6D25E01206 | |
| 267531 | 30-010 A | Engine Stopped | 27-11-2024 21:27:49 | 3686 | - | Niet ingesteld | 6D25E01206 | |
| 267025 | 30-010 A | Engine Stopped | 25-11-2024 17:04:35 | 3661 | - | Niet ingesteld | 6D25E01206 | |
| 265364 | 30-010 A | Battery Voltage | 20-11-2024 16:36:37 | 3619 | - | Niet ingesteld | 6D25E01206 | |
| 265357 | 30-010 A | Engine Stopped | 20-11-2024 15:55:14 | 3619 | - | Niet ingesteld | 6D25E01206 | |
| 264473 | 30-010 A | Engine Stopped | 14-11-2024 18:07:10 | 3571 | - | Niet ingesteld | 6D25E01206 | |
| 264341 | 30-010 A | Engine Stopped | 13-11-2024 18:09:48 | 3563 | - | Niet ingesteld | 6D25E01206 | |
| 264139 | 30-010 A | Engine Stopped | 12-11-2024 15:49:10 | 3552 | - | Niet ingesteld | 6D25E01206 | |
| 264107 | 30-010 A | Low Fuel Level Warning | 12-11-2024 15:02:31 | 3551 | - | Niet ingesteld | 6D25E01206 | |
| 263881 | 30-010 A | Battery Voltage | 11-11-2024 16:19:31 | 3540 | - | Niet ingesteld | 6D25E01206 | |
| 263596 | 30-010 A | Battery Voltage | 09-11-2024 08:55:34 | 3522 | - | Niet ingesteld | 6D25E01206 |